owner,sensor,date,latitude,longitude,vertical_datum,direction_of_sea_water_velocity,sea_water_speed,upward_sea_water_velocity,qcFlag 
TABS,ioos:station:wmo:42044:1,2011-01-21T00:00:00Z,26.1914,-97.0507,2.0,177.4564262,53.182389,-99999.0,'11111222,11111222,99999999' 
TABS,ioos:station:wmo:42044:1,2011-01-21T00:30:00Z,26.1914,-97.0507,2.0,182.7905115,49.49870402,-99999.0,'11111222,11111222,99999999' 
TABS,ioos:station:wmo:42044:1,2011-01-21T01:00:00Z,26.1914,-97.0507,2.0,183.2802191,57.49420927,-99999.0,'11111222,11111222,99999999' 
TABS,ioos:station:wmo:42044:1,2011-01-21T01:30:00Z,26.1914,-97.0507,2.0,180.9920095,53.12796627,-99999.0,'11111222,11111222,99999999' 
TABS,ioos:station:wmo:42044:1,2011-01-21T02:00:00Z,26.1914,-97.0507,2.0,179.2027957,62.54605103,-99999.0,'11111222,11111222,99999999' 
TABS,ioos:station:wmo:42044:1,2011-01-21T02:30:00Z,26.1914,-97.0507,2.0,181.9801394,61.92698685,-99999.0,'11111222,11111222,99999999' 
TABS,ioos:station:wmo:42044:1,2011-01-21T03:00:00Z,26.1914,-97.0507,2.0,178.5967068,68.61057134,-99999.0,'11111222,11111222,99999999' 
TABS,ioos:station:wmo:42044:1,2011-01-21T03:30:00Z,26.1914,-97.0507,2.0,178.8689494,74.48450711,-99999.0,'11111222,11111222,99999999' 
TABS,ioos:station:wmo:42044:1,2011-01-21T04:00:00Z,26.1914,-97.0507,2.0,175.3711039,72.98804423,-99999.0,'11111222,11111222,99999999' 
TABS,ioos:station:wmo:42044:1,2011-01-21T04:30:00Z,26.1914,-97.0507,2.0,174.9118051,74.08190737,-99999.0,'11111222,11111222,99999999' 
TABS,ioos:station:wmo:42044:1,2011-01-21T05:00:00Z,26.1914,-97.0507,2.0,177.8992727,74.20986457,-99999.0,'11111222,11111222,99999999' 
TABS,ioos:station:wmo:42044:1,2011-01-21T05:30:00Z,26.1914,-97.0507,2.0,175.5013555,74.45937483,-99999.0,'11111222,11111222,99999999' 
TABS,ioos:station:wmo:42044:1,2011-01-21T06:00:00Z,26.1914,-97.0507,2.0,172.2376241,60.56494448,-99999.0,'11111222,11111222,99999999' 
TABS,ioos:station:wmo:42044:1,2011-01-21T06:30:00Z,26.1914,-97.0507,2.0,175.0263438,60.09626444,-99999.0,'11111222,11111222,99999999' 
TABS,ioos:station:wmo:42044:1,2011-01-21T07:00:00Z,26.1914,-97.0507,2.0,170.4825208,56.54834569,-99999.0,'11111222,11111222,99999999' 
TABS,ioos:station:wmo:42044:1,2011-01-21T07:30:00Z,26.1914,-97.0507,2.0,173.3060515,56.19304761,-99999.0,'11111222,11111222,99999999' 
TABS,ioos:station:wmo:42044:1,2011-01-21T08:00:00Z,26.1914,-97.0507,2.0,171.9617644,57.21208351,-99999.0,'11111222,11111222,99999999' 
TABS,ioos:station:wmo:42044:1,2011-01-21T08:30:00Z,26.1914,-97.0507,2.0,173.2680716,56.55993105,-99999.0,'11111222,11111222,99999999' 
TABS,ioos:station:wmo:42044:1,2011-01-21T09:00:00Z,26.1914,-97.0507,2.0,169.090146,51.09342228,-99999.0,'11111222,11111222,99999999' 
TABS,ioos:station:wmo:42044:1,2011-01-21T09:30:00Z,26.1914,-97.0507,2.0,183.3203465,47.65,-99999.0,'11111222,11111222,99999999' 
TABS,ioos:station:wmo:42044:1,2011-01-21T10:00:00Z,26.1914,-97.0507,2.0,170.0898147,47.76265173,-99999.0,'11111222,11111222,99999999' 
TABS,ioos:station:wmo:42044:1,2011-01-21T10:30:00Z,26.1914,-97.0507,2.0,172.9193643,36.66964003,-99999.0,'11111222,11111222,99999999' 
TABS,ioos:station:wmo:42044:1,2011-01-21T11:00:00Z,26.1914,-97.0507,2.0,171.2814211,48.62181095,-99999.0,'11111222,11111222,99999999' 
TABS,ioos:station:wmo:42044:1,2011-01-21T11:30:00Z,26.1914,-97.0507,2.0,176.4818399,45.30537275,-99999.0,'11111222,11111222,99999999' 
TABS,ioos:station:wmo:42044:1,2011-01-21T12:00:00Z,26.1914,-97.0507,2.0,175.9808748,42.2338549,-99999.0,'11111222,11111222,99999999' 
TABS,ioos:station:wmo:42044:1,2011-01-21T12:30:00Z,26.1914,-97.0507,2.0,169.2919943,45.90939991,-99999.0,'11111222,11111222,99999999' 
TABS,ioos:station:wmo:42044:1,2011-01-21T13:00:00Z,26.1914,-97.0507,2.0,168.7939975,41.01187389,-99999.0,'11111222,11111222,99999999' 
TABS,ioos:station:wmo:42044:1,2011-01-21T13:30:00Z,26.1914,-97.0507,2.0,165.2501816,38.37453583,-99999.0,'11111222,11111222,99999999' 
TABS,ioos:station:wmo:42044:1,2011-01-21T14:00:00Z,26.1914,-97.0507,2.0,154.426094,37.48210907,-99999.0,'11111222,11111222,99999999' 
TABS,ioos:station:wmo:42044:1,2011-01-21T14:30:00Z,26.1914,-97.0507,2.0,155.1563982,36.32119491,-99999.0,'11111222,11111222,99999999' 
TABS,ioos:station:wmo:42044:1,2011-01-21T15:00:00Z,26.1914,-97.0507,2.0,165.8893938,39.336886,-99999.0,'11111222,11111222,99999999' 
TABS,ioos:station:wmo:42044:1,2011-01-21T15:30:00Z,26.1914,-97.0507,2.0,155.7218483,37.43028854,-99999.0,'11111222,11111222,99999999' 
TABS,ioos:station:wmo:42044:1,2011-01-21T16:00:00Z,26.1914,-97.0507,2.0,162.5156489,33.35080959,-99999.0,'11111222,11111222,99999999' 
TABS,ioos:station:wmo:42044:1,2011-01-21T16:30:00Z,26.1914,-97.0507,2.0,162.2708256,39.01281841,-99999.0,'11111222,11111222,99999999' 
TABS,ioos:station:wmo:42044:1,2011-01-21T17:00:00Z,26.1914,-97.0507,2.0,162.903026,42.65494696,-99999.0,'11111222,11111222,99999999' 
TABS,ioos:station:wmo:42044:1,2011-01-21T17:30:00Z,26.1914,-97.0507,2.0,164.8758176,39.47736187,-99999.0,'11111222,11111222,99999999' 
TABS,ioos:station:wmo:42044:1,2011-01-21T18:00:00Z,26.1914,-97.0507,2.0,171.9070696,36.8671412,-99999.0,'11111222,11111222,99999999' 
TABS,ioos:station:wmo:42044:1,2011-01-21T18:30:00Z,26.1914,-97.0507,2.0,177.2734849,38.47354676,-99999.0,'11111222,11111222,99999999' 
TABS,ioos:station:wmo:42044:1,2011-01-21T19:00:00Z,26.1914,-97.0507,2.0,172.181991,30.87698334,-99999.0,'11111222,11111222,99999999' 
TABS,ioos:station:wmo:42044:1,2011-01-21T19:30:00Z,26.1914,-97.0507,2.0,172.4142044,29.31655676,-99999.0,'11111222,11111222,99999999' 
TABS,ioos:station:wmo:42044:1,2011-01-21T20:00:00Z,26.1914,-97.0507,2.0,174.9136975,25.37993105,-99999.0,'11111222,11111222,99999999' 
TABS,ioos:station:wmo:42044:1,2011-01-21T20:30:00Z,26.1914,-97.0507,2.0,165.1612516,24.24866388,-99999.0,'11111222,11111222,99999999' 
TABS,ioos:station:wmo:42044:1,2011-01-21T21:00:00Z,26.1914,-97.0507,2.0,172.7782107,23.54678747,-99999.0,'11111222,11111222,99999999' 
TABS,ioos:station:wmo:42044:1,2011-01-21T21:30:00Z,26.1914,-97.0507,2.0,171.0892173,23.04816262,-99999.0,'11111222,11111222,99999999' 
TABS,ioos:station:wmo:42044:1,2011-01-21T22:00:00Z,26.1914,-97.0507,2.0,166.0078715,21.96160741,-99999.0,'11111222,11111222,99999999' 
TABS,ioos:station:wmo:42044:1,2011-01-21T22:30:00Z,26.1914,-97.0507,2.0,167.9668572,19.42684998,-99999.0,'11111222,11111222,99999999' 
TABS,ioos:station:wmo:42044:1,2011-01-21T23:00:00Z,26.1914,-97.0507,2.0,167.7109731,21.23659342,-99999.0,'11111222,11111222,99999999' 
TABS,ioos:station:wmo:42044:1,2011-01-21T23:30:00Z,26.1914,-97.0507,2.0,172.0145486,19.57984934,-99999.0,'11111222,11111222,99999999' 
TABS,ioos:station:wmo:42044:1,2011-01-22T00:00:00Z,26.1914,-97.0507,2.0,170.7832022,19.16745419,-99999.0,'11111222,11111222,99999999' 
TABS,ioos:station:wmo:42044:1,2011-01-22T00:30:00Z,26.1914,-97.0507,2.0,173.5475487,16.37371369,-99999.0,'11111222,11111222,99999999' 
TABS,ioos:station:wmo:42044:1,2011-01-22T01:00:00Z,26.1914,-97.0507,2.0,164.1636347,15.13441443,-99999.0,'11111222,11111222,99999999' 
TABS,ioos:station:wmo:42044:1,2011-01-22T01:30:00Z,26.1914,-97.0507,2.0,170.1551379,16.25942188,-99999.0,'11111222,11111222,99999999' 
TABS,ioos:station:wmo:42044:1,2011-01-22T02:00:00Z,26.1914,-97.0507,2.0,171.2096599,14.85447071,-99999.0,'11111222,11111222,99999999' 
TABS,ioos:station:wmo:42044:1,2011-01-22T02:30:00Z,26.1914,-97.0507,2.0,156.6182623,15.62291906,-99999.0,'11111222,11111222,99999999' 
TABS,ioos:station:wmo:42044:1,2011-01-22T03:00:00Z,26.1914,-97.0507,2.0,163.1449641,14.10595973,-99999.0,'11111222,11111222,99999999' 
TABS,ioos:station:wmo:42044:1,2011-01-22T03:30:00Z,26.1914,-97.0507,2.0,161.9101112,14.17042342,-99999.0,'11111222,11111222,99999999' 
TABS,ioos:station:wmo:42044:1,2011-01-22T04:00:00Z,26.1914,-97.0507,2.0,161.0723832,16.55513515,-99999.0,'11111222,11111222,99999999' 
TABS,ioos:station:wmo:42044:1,2011-01-22T04:30:00Z,26.1914,-97.0507,2.0,175.9651406,17.62367726,-99999.0,'11111222,11111222,99999999' 
TABS,ioos:station:wmo:42044:1,2011-01-22T05:00:00Z,26.1914,-97.0507,2.0,173.768866,16.21579477,-99999.0,'11111222,11111222,99999999' 
TABS,ioos:station:wmo:42044:1,2011-01-22T05:30:00Z,26.1914,-97.0507,2.0,170.1314251,19.02144053,-99999.0,'11111222,11111222,99999999' 
TABS,ioos:station:wmo:42044:1,2011-01-22T06:00:00Z,26.1914,-97.0507,2.0,181.622992,18.35736637,-99999.0,'11111222,11111222,99999999' 
TABS,ioos:station:wmo:42044:1,2011-01-22T06:30:00Z,26.1914,-97.0507,2.0,182.1690421,17.17230619,-99999.0,'11111222,11111222,99999999' 
TABS,ioos:station:wmo:42044:1,2011-01-22T07:00:00Z,26.1914,-97.0507,2.0,172.7386959,13.05469264,-99999.0,'11111222,11111222,99999999' 
TABS,ioos:station:wmo:42044:1,2011-01-22T07:30:00Z,26.1914,-97.0507,2.0,173.8052638,13.90116542,-99999.0,'11111222,11111222,99999999' 
TABS,ioos:station:wmo:42044:1,2011-01-22T08:00:00Z,26.1914,-97.0507,2.0,175.4033466,16.2221731,-99999.0,'11111222,11111222,99999999' 
TABS,ioos:station:wmo:42044:1,2011-01-22T08:30:00Z,26.1914,-97.0507,2.0,175.7738012,14.2487403,-99999.0,'11111222,11111222,99999999' 
TABS,ioos:station:wmo:42044:1,2011-01-22T09:00:00Z,26.1914,-97.0507,2.0,176.8071715,14.90313054,-99999.0,'11111222,11111222,99999999' 
TABS,ioos:station:wmo:42044:1,2011-01-22T09:30:00Z,26.1914,-97.0507,2.0,161.2311266,16.28600626,-99999.0,'11111222,11111222,99999999' 
TABS,ioos:station:wmo:42044:1,2011-01-22T10:00:00Z,26.1914,-97.0507,2.0,169.3527374,17.96936282,-99999.0,'11111222,11111222,99999999' 
TABS,ioos:station:wmo:42044:1,2011-01-22T10:30:00Z,26.1914,-97.0507,2.0,175.6010945,14.34224529,-99999.0,'11111222,11111222,99999999' 
TABS,ioos:station:wmo:42044:1,2011-01-22T11:00:00Z,26.1914,-97.0507,2.0,164.9063299,16.16775185,-99999.0,'11111222,11111222,99999999' 
TABS,ioos:station:wmo:42044:1,2011-01-22T11:30:00Z,26.1914,-97.0507,2.0,168.8569257,16.81703006,-99999.0,'11111222,11111222,99999999' 
TABS,ioos:station:wmo:42044:1,2011-01-22T12:00:00Z,26.1914,-97.0507,2.0,172.3453296,17.71787798,-99999.0,'11111222,11111222,99999999' 
TABS,ioos:station:wmo:42044:1,2011-01-22T12:30:00Z,26.1914,-97.0507,2.0,167.9422568,20.44096377,-99999.0,'11111222,11111222,99999999' 
TABS,ioos:station:wmo:42044:1,2011-01-22T13:00:00Z,26.1914,-97.0507,2.0,173.3365755,23.7000865,-99999.0,'11111222,11111222,99999999' 
TABS,ioos:station:wmo:42044:1,2011-01-22T13:30:00Z,26.1914,-97.0507,2.0,175.6327736,22.19443624,-99999.0,'11111222,11111222,99999999' 
TABS,ioos:station:wmo:42044:1,2011-01-22T14:00:00Z,26.1914,-97.0507,2.0,165.0108202,21.1496052,-99999.0,'11111222,11111222,99999999' 
TABS,ioos:station:wmo:42044:1,2011-01-22T14:30:00Z,26.1914,-97.0507,2.0,164.2447083,21.50803571,-99999.0,'11111222,11111222,99999999' 
TABS,ioos:station:wmo:42044:1,2011-01-22T15:00:00Z,26.1914,-97.0507,2.0,165.41191,22.67085574,-99999.0,'11111222,11111222,99999999' 
TABS,ioos:station:wmo:42044:1,2011-01-22T15:30:00Z,26.1914,-97.0507,2.0,166.7029492,23.86991831,-99999.0,'11111222,11111222,99999999' 
TABS,ioos:station:wmo:42044:1,2011-01-22T16:00:00Z,26.1914,-97.0507,2.0,172.1845143,25.73907535,-99999.0,'11111222,11111222,99999999' 
TABS,ioos:station:wmo:42044:1,2011-01-22T16:30:00Z,26.1914,-97.0507,2.0,170.4097219,28.75181038,-99999.0,'11111222,11111222,99999999' 
TABS,ioos:station:wmo:42044:1,2011-01-22T17:00:00Z,26.1914,-97.0507,2.0,171.9421406,27.96609554,-99999.0,'11111222,11111222,99999999' 
TABS,ioos:station:wmo:42044:1,2011-01-22T17:30:00Z,26.1914,-97.0507,2.0,173.3003355,29.05841875,-99999.0,'11111222,11111222,99999999' 
TABS,ioos:station:wmo:42044:1,2011-01-22T18:00:00Z,26.1914,-97.0507,2.0,172.7430945,26.44179457,-99999.0,'11111222,11111222,99999999' 
TABS,ioos:station:wmo:42044:1,2011-01-22T18:30:00Z,26.1914,-97.0507,2.0,174.2744096,26.96451372,-99999.0,'11111222,11111222,99999999' 
TABS,ioos:station:wmo:42044:1,2011-01-22T19:00:00Z,26.1914,-97.0507,2.0,175.5875718,25.99704599,-99999.0,'11111222,11111222,99999999' 
TABS,ioos:station:wmo:42044:1,2011-01-22T19:30:00Z,26.1914,-97.0507,2.0,174.106893,23.76558857,-99999.0,'11111222,11111222,99999999' 
TABS,ioos:station:wmo:42044:1,2011-01-22T20:00:00Z,26.1914,-97.0507,2.0,174.2128824,23.90180955,-99999.0,'11111222,11111222,99999999' 
TABS,ioos:station:wmo:42044:1,2011-01-22T20:30:00Z,26.1914,-97.0507,2.0,177.7091849,20.26619353,-99999.0,'11111222,11111222,99999999' 
TABS,ioos:station:wmo:42044:1,2011-01-22T21:00:00Z,26.1914,-97.0507,2.0,164.6948409,20.15480092,-99999.0,'11111222,11111222,99999999' 
TABS,ioos:station:wmo:42044:1,2011-01-22T21:30:00Z,26.1914,-97.0507,2.0,143.4817981,22.14841755,-99999.0,'11111222,11111222,99999999' 
TABS,ioos:station:wmo:42044:1,2011-01-22T22:00:00Z,26.1914,-97.0507,2.0,136.7259939,23.0055515,-99999.0,'11111222,11111222,99999999' 
TABS,ioos:station:wmo:42044:1,2011-01-22T22:30:00Z,26.1914,-97.0507,2.0,141.1972953,27.57568675,-99999.0,'11111222,11111222,99999999' 
TABS,ioos:station:wmo:42044:1,2011-01-22T23:00:00Z,26.1914,-97.0507,2.0,138.5081013,35.24460952,-99999.0,'11111222,11111222,99999999' 
TABS,ioos:station:wmo:42044:1,2011-01-22T23:30:00Z,26.1914,-97.0507,2.0,128.7604232,31.09892924,-99999.0,'11111222,11111222,99999999' 
TABS,ioos:station:wmo:42044:1,2011-01-23T00:00:00Z,26.1914,-97.0507,2.0,165.7662592,26.76153957,-99999.0,'11111222,11111222,99999999' 
TABS,ioos:station:wmo:42044:1,2011-01-23T00:30:00Z,26.1914,-97.0507,2.0,154.2392107,28.66921694,-99999.0,'11111222,11111222,99999999' 
TABS,ioos:station:wmo:42044:1,2011-01-23T01:00:00Z,26.1914,-97.0507,2.0,161.4654699,27.33793152,-99999.0,'11111222,11111222,99999999' 
TABS,ioos:station:wmo:42044:1,2011-01-23T01:30:00Z,26.1914,-97.0507,2.0,165.1561345,22.71814253,-99999.0,'11111222,11111222,99999999' 
TABS,ioos:station:wmo:42044:1,2011-01-23T02:00:00Z,26.1914,-97.0507,2.0,143.0190724,26.86405033,-99999.0,'11111222,11111222,99999999' 
TABS,ioos:station:wmo:42044:1,2011-01-23T02:30:00Z,26.1914,-97.0507,2.0,137.5189695,26.22364772,-99999.0,'11111222,11111222,99999999' 
TABS,ioos:station:wmo:42044:1,2011-01-23T03:00:00Z,26.1914,-97.0507,2.0,137.17128,24.448094,-99999.0,'11111222,11111222,99999999' 
TABS,ioos:station:wmo:42044:1,2011-01-23T03:30:00Z,26.1914,-97.0507,2.0,136.0087899,26.10335802,-99999.0,'11111222,11111222,99999999' 
TABS,ioos:station:wmo:42044:1,2011-01-23T04:00:00Z,26.1914,-97.0507,2.0,126.5000347,27.89058085,-99999.0,'11111222,11111222,99999999' 
TABS,ioos:station:wmo:42044:1,2011-01-23T04:30:00Z,26.1914,-97.0507,2.0,123.6899887,28.19541097,-99999.0,'11111222,11111222,99999999' 
TABS,ioos:station:wmo:42044:1,2011-01-23T05:00:00Z,26.1914,-97.0507,2.0,122.4660903,26.22943575,-99999.0,'11111222,11111222,99999999' 
TABS,ioos:station:wmo:42044:1,2011-01-23T05:30:00Z,26.1914,-97.0507,2.0,119.2885958,22.5874412,-99999.0,'11111222,11111222,99999999' 
TABS,ioos:station:wmo:42044:1,2011-01-23T06:00:00Z,26.1914,-97.0507,2.0,114.6126304,19.95283689,-99999.0,'11111222,11111222,99999999' 
TABS,ioos:station:wmo:42044:1,2011-01-23T06:30:00Z,26.1914,-97.0507,2.0,115.8209316,17.90794237,-99999.0,'11111222,11111222,99999999' 
TABS,ioos:station:wmo:42044:1,2011-01-23T07:00:00Z,26.1914,-97.0507,2.0,99.42387979,17.16161414,-99999.0,'11111222,11111222,99999999' 
TABS,ioos:station:wmo:42044:1,2011-01-23T07:30:00Z,26.1914,-97.0507,2.0,93.45925797,17.40170681,-99999.0,'11111222,11111222,99999999' 
TABS,ioos:station:wmo:42044:1,2011-01-23T08:00:00Z,26.1914,-97.0507,2.0,78.44388952,15.97380668,-99999.0,'11111222,11111222,99999999' 
TABS,ioos:station:wmo:42044:1,2011-01-23T08:30:00Z,26.1914,-97.0507,2.0,82.16027955,17.3017109,-99999.0,'11111222,11111222,99999999' 
TABS,ioos:station:wmo:42044:1,2011-01-23T09:00:00Z,26.1914,-97.0507,2.0,75.7580324,17.55969248,-99999.0,'11111222,11111222,99999999' 
TABS,ioos:station:wmo:42044:1,2011-01-23T09:30:00Z,26.1914,-97.0507,2.0,66.3728763,14.92076741,-99999.0,'11111222,11111222,99999999' 
TABS,ioos:station:wmo:42044:1,2011-01-23T10:00:00Z,26.1914,-97.0507,2.0,63.79194736,19.38261334,-99999.0,'11111222,11111222,99999999' 
TABS,ioos:station:wmo:42044:1,2011-01-23T10:30:00Z,26.1914,-97.0507,2.0,70.71970344,19.50388936,-99999.0,'11111222,11111222,99999999' 
TABS,ioos:station:wmo:42044:1,2011-01-23T11:00:00Z,26.1914,-97.0507,2.0,68.73433099,21.45060605,-99999.0,'11111222,11111222,99999999' 
TABS,ioos:station:wmo:42044:1,2011-01-23T11:30:00Z,26.1914,-97.0507,2.0,68.83631045,20.85673512,-99999.0,'11111222,11111222,99999999' 
TABS,ioos:station:wmo:42044:1,2011-01-23T12:00:00Z,26.1914,-97.0507,2.0,74.33187622,22.14278212,-99999.0,'11111222,11111222,99999999' 
TABS,ioos:station:wmo:42044:1,2011-01-23T12:30:00Z,26.1914,-97.0507,2.0,78.19412963,21.75009425,-99999.0,'11111222,11111222,99999999' 
TABS,ioos:station:wmo:42044:1,2011-01-23T13:00:00Z,26.1914,-97.0507,2.0,85.6113727,21.82398909,-99999.0,'11111222,11111222,99999999' 
TABS,ioos:station:wmo:42044:1,2011-01-23T13:30:00Z,26.1914,-97.0507,2.0,90.59652563,21.13114526,-99999.0,'11111222,11111222,99999999' 
TABS,ioos:station:wmo:42044:1,2011-01-23T14:00:00Z,26.1914,-97.0507,2.0,93.40024793,20.90680511,-99999.0,'11111222,11111222,99999999' 
TABS,ioos:station:wmo:42044:1,2011-01-23T14:30:00Z,26.1914,-97.0507,2.0,97.65015498,17.72778892,-99999.0,'11111222,11111222,99999999' 
TABS,ioos:station:wmo:42044:1,2011-01-23T15:00:00Z,26.1914,-97.0507,2.0,107.8289569,17.34290056,-99999.0,'11111222,11111222,99999999' 
TABS,ioos:station:wmo:42044:1,2011-01-23T15:30:00Z,26.1914,-97.0507,2.0,109.0771643,19.18358152,-99999.0,'11111222,11111222,99999999' 
TABS,ioos:station:wmo:42044:1,2011-01-23T16:00:00Z,26.1914,-97.0507,2.0,113.901098,19.91805713,-99999.0,'11111222,11111222,99999999' 
TABS,ioos:station:wmo:42044:1,2011-01-23T16:30:00Z,26.1914,-97.0507,2.0,112.0997706,20.67931333,-99999.0,'11111222,11111222,99999999' 
TABS,ioos:station:wmo:42044:1,2011-01-23T17:00:00Z,26.1914,-97.0507,2.0,114.1940804,16.32385371,-99999.0,'11111222,11111222,99999999' 
TABS,ioos:station:wmo:42044:1,2011-01-23T17:30:00Z,26.1914,-97.0507,2.0,115.2747054,19.46319861,-99999.0,'11111222,11111222,99999999' 
TABS,ioos:station:wmo:42044:1,2011-01-23T18:00:00Z,26.1914,-97.0507,2.0,124.2703202,16.97747037,-99999.0,'11111222,11111222,99999999' 
TABS,ioos:station:wmo:42044:1,2011-01-23T18:30:00Z,26.1914,-97.0507,2.0,123.10744,16.36727528,-99999.0,'11111222,11111222,99999999' 
TABS,ioos:station:wmo:42044:1,2011-01-23T19:00:00Z,26.1914,-97.0507,2.0,119.6407326,17.75312085,-99999.0,'11111222,11111222,99999999' 
TABS,ioos:station:wmo:42044:1,2011-01-23T19:30:00Z,26.1914,-97.0507,2.0,122.4790261,16.66691633,-99999.0,'11111222,11111222,99999999' 
TABS,ioos:station:wmo:42044:1,2011-01-23T20:00:00Z,26.1914,-97.0507,2.0,123.8409402,16.84352992,-99999.0,'11111222,11111222,99999999' 
TABS,ioos:station:wmo:42044:1,2011-01-23T20:30:00Z,26.1914,-97.0507,2.0,117.1522618,14.83485423,-99999.0,'11111222,11111222,99999999' 
TABS,ioos:station:wmo:42044:1,2011-01-23T21:00:00Z,26.1914,-97.0507,2.0,127.8928392,16.80267836,-99999.0,'11111222,11111222,99999999' 
TABS,ioos:station:wmo:42044:1,2011-01-23T21:30:00Z,26.1914,-97.0507,2.0,122.3739247,19.44182347,-99999.0,'11111222,11111222,99999999' 
TABS,ioos:station:wmo:42044:1,2011-01-23T22:00:00Z,26.1914,-97.0507,2.0,123.9408356,17.10434448,-99999.0,'11111222,11111222,99999999' 
TABS,ioos:station:wmo:42044:1,2011-01-23T22:30:00Z,26.1914,-97.0507,2.0,124.7710803,17.63983277,-99999.0,'11111222,11111222,99999999' 
TABS,ioos:station:wmo:42044:1,2011-01-23T23:00:00Z,26.1914,-97.0507,2.0,130.7936277,19.37742243,-99999.0,'11111222,11111222,99999999' 
TABS,ioos:station:wmo:42044:1,2011-01-23T23:30:00Z,26.1914,-97.0507,2.0,129.6585126,20.96482769,-99999.0,'11111222,11111222,99999999' 
TABS,ioos:station:wmo:42044:1,2011-01-24T00:00:00Z,26.1914,-97.0507,2.0,130.8169157,20.45451784,-99999.0,'11111222,11111222,99999999' 
TABS,ioos:station:wmo:42044:1,2011-01-24T00:30:00Z,26.1914,-97.0507,2.0,130.7499901,22.13674321,-99999.0,'11111222,11111222,99999999' 
TABS,ioos:station:wmo:42044:1,2011-01-24T01:00:00Z,26.1914,-97.0507,2.0,130.1420915,21.79353344,-99999.0,'11111222,11111222,99999999' 
TABS,ioos:station:wmo:42044:1,2011-01-24T01:30:00Z,26.1914,-97.0507,2.0,136.8014995,22.71642798,-99999.0,'11111222,11111222,99999999' 
TABS,ioos:station:wmo:42044:1,2011-01-24T02:00:00Z,26.1914,-97.0507,2.0,134.2141561,24.23482824,-99999.0,'11111222,11111222,99999999' 
TABS,ioos:station:wmo:42044:1,2011-01-24T02:30:00Z,26.1914,-97.0507,2.0,136.6160754,21.56119199,-99999.0,'11111222,11111222,99999999' 
TABS,ioos:station:wmo:42044:1,2011-01-24T03:00:00Z,26.1914,-97.0507,2.0,137.5943599,20.46343324,-99999.0,'11111222,11111222,99999999' 
TABS,ioos:station:wmo:42044:1,2011-01-24T03:30:00Z,26.1914,-97.0507,2.0,145.9461763,23.16197315,-99999.0,'11111222,11111222,99999999' 
TABS,ioos:station:wmo:42044:1,2011-01-24T04:00:00Z,26.1914,-97.0507,2.0,140.7184756,25.19231033,-99999.0,'11111222,11111222,99999999' 
TABS,ioos:station:wmo:42044:1,2011-01-24T04:30:00Z,26.1914,-97.0507,2.0,139.2307692,24.44057487,-99999.0,'11111222,11111222,99999999' 
TABS,ioos:station:wmo:42044:1,2011-01-24T05:00:00Z,26.1914,-97.0507,2.0,134.2658032,24.28404003,-99999.0,'11111222,11111222,99999999' 
TABS,ioos:station:wmo:42044:1,2011-01-24T05:30:00Z,26.1914,-97.0507,2.0,149.7660613,27.32708729,-99999.0,'11111222,11111222,99999999' 
TABS,ioos:station:wmo:42044:1,2011-01-24T06:00:00Z,26.1914,-97.0507,2.0,146.5954732,26.70082583,-99999.0,'11111222,11111222,99999999' 
TABS,ioos:station:wmo:42044:1,2011-01-24T06:30:00Z,26.1914,-97.0507,2.0,139.3489814,28.81271421,-99999.0,'11111222,11111222,99999999' 
TABS,ioos:station:wmo:42044:1,2011-01-24T07:00:00Z,26.1914,-97.0507,2.0,149.1279568,29.95398137,-99999.0,'11111222,11111222,99999999' 
TABS,ioos:station:wmo:42044:1,2011-01-24T07:30:00Z,26.1914,-97.0507,2.0,139.5929951,25.25410462,-99999.0,'11111222,11111222,99999999' 
TABS,ioos:station:wmo:42044:1,2011-01-24T08:00:00Z,26.1914,-97.0507,2.0,136.8684918,28.62476201,-99999.0,'11111222,11111222,99999999' 
TABS,ioos:station:wmo:42044:1,2011-01-24T08:30:00Z,26.1914,-97.0507,2.0,142.1671167,28.56403333,-99999.0,'11111222,11111222,99999999' 
TABS,ioos:station:wmo:42044:1,2011-01-24T09:00:00Z,26.1914,-97.0507,2.0,146.4133439,30.69438548,-99999.0,'11111222,11111222,99999999' 
TABS,ioos:station:wmo:42044:1,2011-01-24T09:30:00Z,26.1914,-97.0507,2.0,150.5539355,32.56700324,-99999.0,'11111222,11111222,99999999' 
TABS,ioos:station:wmo:42044:1,2011-01-24T10:00:00Z,26.1914,-97.0507,2.0,149.5232378,31.46769772,-99999.0,'11111222,11111222,99999999' 
TABS,ioos:station:wmo:42044:1,2011-01-24T10:30:00Z,26.1914,-97.0507,2.0,156.5354678,40.76058145,-99999.0,'11111222,11111222,99999999' 
TABS,ioos:station:wmo:42044:1,2011-01-24T11:00:00Z,26.1914,-97.0507,2.0,169.5332916,48.4969298,-99999.0,'11111222,11111222,99999999' 
TABS,ioos:station:wmo:42044:1,2011-01-24T11:30:00Z,26.1914,-97.0507,2.0,169.1743534,54.04173295,-99999.0,'11111222,11111222,99999999' 
TABS,ioos:station:wmo:42044:1,2011-01-24T12:00:00Z,26.1914,-97.0507,2.0,173.5124684,51.60040504,-99999.0,'11111222,11111222,99999999' 
TABS,ioos:station:wmo:42044:1,2011-01-24T12:30:00Z,26.1914,-97.0507,2.0,175.9214224,56.3827784,-99999.0,'11111222,11111222,99999999' 
TABS,ioos:station:wmo:42044:1,2011-01-24T13:00:00Z,26.1914,-97.0507,2.0,179.4178113,55.13284411,-99999.0,'11111222,11111222,99999999' 
TABS,ioos:station:wmo:42044:1,2011-01-24T13:30:00Z,26.1914,-97.0507,2.0,178.0547199,59.51429072,-99999.0,'11111222,11111222,99999999' 
TABS,ioos:station:wmo:42044:1,2011-01-24T14:00:00Z,26.1914,-97.0507,2.0,176.298991,64.60471964,-99999.0,'11111222,11111222,99999999' 
TABS,ioos:station:wmo:42044:1,2011-01-24T14:30:00Z,26.1914,-97.0507,2.0,176.504325,68.06662986,-99999.0,'11111222,11111222,99999999' 
TABS,ioos:station:wmo:42044:1,2011-01-24T15:00:00Z,26.1914,-97.0507,2.0,173.9857433,71.20187989,-99999.0,'11111222,11111222,99999999' 
TABS,ioos:station:wmo:42044:1,2011-01-24T15:30:00Z,26.1914,-97.0507,2.0,174.019204,66.51200944,-99999.0,'11111222,11111222,99999999' 
TABS,ioos:station:wmo:42044:1,2011-01-24T16:00:00Z,26.1914,-97.0507,2.0,174.2252954,70.46758262,-99999.0,'11111222,11111222,99999999' 